Regional Weather Roundup
Issued by NWS

Home | Current Version | Previous Version | Text Only | Print | Product List | Glossary On
Versions: 1 2 3 4 5 6 7 8 9 10 11 12 13 14 15 16 17 18 19 20 21 22 23 24 25 26 27 28 29 30 31 32 33 34 35 36 37 38 39 40 41 42 43 44 45 46 47 48 49 50
000
ASUS43 KDTX 061010
RWRMI
MICHIGAN HOURLY REGIONAL WEATHER ROUNDUP
NATIONAL WEATHER SERVICE DETROIT/PONTIAC MI
600 AM EDT MON JUL 06 2015

NOTE: "FAIR" INDICATES FEW OR NO CLOUDS BELOW 12,000 FEET WITH NO
SIGNIFICANT WEATHER AND/OR OBSTRUCTION TO VISIBILITY.

MIZ047>049-052>055-059>063-066>070-074>076-081>083-061100-
SOUTHEAST LOWER MICHIGAN

CITY           SKY/WX    TMP DP  RH WIND       PRES   REMARKS
ADRIAN         CLEAR     57  55  93 CALM      30.09R FOG
ALMA           CLEAR     58  57  97 CALM      30.05F
ANN ARBOR      PTCLDY    52  51  97 SE3       30.07F FOG
BAD AXE        CLEAR     58  53  83 S3        30.07F
CARO             N/A     53  52  99 CALM      30.06F FOG
DETROIT CITY   CLEAR     60  56  86 CALM      30.08S
DETROIT        PTCLDY    61  58  90 CALM      30.08S FOG
FLINT          CLEAR     58  54  86 CALM      30.07F FOG
GROSSE ILE     CLEAR     61  57  88 CALM      30.06F FOG
HILLSDALE      CLEAR     59  59 100 SE5       30.08F FOG
HOWELL         CLEAR     59  58  97 CALM      30.07F FOG

CITY           SKY/WX    TMP DP  RH WIND       PRES   REMARKS
JACKSON        CLEAR     57  55  93 CALM      30.07F
LAMBERTVILLE   CLEAR     59  56  91 CALM      30.08S FOG
LANSING        CLEAR     61  55  81 SE3       30.05F
LAPEER         FAIR      51  49  95 CALM      30.08S FOG
MASON          CLEAR     57  56  95 S3        30.07F FOG
MONROE         FOG       58  58  99 CALM      30.07S VSB 1/4
MT. CLEMENS    CLEAR     59  56  92 CALM      30.06S
PONTIAC        PTCLDY    58  56  93 CALM      30.07S
PORT HOPE        N/A     65  53  65 SW8       30.04F
PORT HURON       N/A     54  54 100 CALM      30.09R FOG
TRI CITIES     CLEAR     63  56  78 S5        30.06S
MIDLAND        FAIR      58  57  95 CALM      30.03F
TROY           CLEAR     62  58  86 CALM      30.10R FOG
SAGINAW HB     CLEAR     59  57  94 S3        30.05S
$$
MIZ043>046-050>051-056>058-064>065-071>073-077>080-061100-
SOUTHWEST LOWER MICHIGAN

CITY           SKY/WX    TMP DP  RH WIND       PRES   REMARKS
BATTLE CREEK   CLEAR     63  59  87 S5        30.06F
BENTON HARBOR  CLEAR     61  58  90 SE3       30.02F
BIG RAPIDS     CLEAR     57  55  91 SE3       30.00F FOG
COLDWATER      CLEAR     58  57  98 CALM      30.07F FOG
FREMONT        FAIR      62  60  94 S3        30.00F
HOLLAND        CLEAR     63  60  90 S5        30.02F
GRAND RAPIDS   CLEAR     62  59  90 S8        30.03F
IONIA          FAIR      58  57  96 S5        30.04F FOG
KALAMAZOO      CLEAR     63  59  87 SE5       30.06R
LUDINGTON      PTCLDY    68  62  79 S6        29.97F
MARSHALL       CLEAR     59  57  95 CALM      30.06S
MOUNT PLEASANT CLEAR     64  58  81 CALM      30.03F
MUSKEGON       PTCLDY    65  59  81 S6        30.00F
SOUTH HAVEN    CLEAR     63  60  91 CALM      30.02F
$$
MIZ016>042-061100-
NORTHERN LOWER MICHIGAN

CITY           SKY/WX    TMP DP  RH WIND       PRES   REMARKS
ALPENA         CLEAR     65  60  84 S6        30.01F
BEAVER ISLAND  PTCLDY    67  58  73 SW10      29.94F
BELLAIRE       PTCLDY    58  57  95 CALM      29.97F FOG
CADILLAC       CLEAR     66  60  81 S10       29.99F
CHARLEVOIX     PTCLDY    68  59  73 S6        29.98F
FRANKFORT      PTCLDY    74  56  54 S10G18    29.96R
GAYLORD        CLEAR     64  61  90 S7        29.99F
GRAYLING       CLEAR     62  60  93 S5        30.01F FOG
HARBOR SPRINGS CLEAR     66  60  80 S6        29.96S
HOUGHTON LAKE  CLEAR     64  60  87 S7        30.02F
MANISTEE       PTCLDY    61  55  82 E3        29.97F
OSCODA         CLEAR     60  59  97 SW3       30.03F FOG
PELLSTON       CLEAR     61  58  90 S3        29.96F
ROGERS CITY    CLEAR     64  61  90 S8        30.00F
TRAVERSE CITY  PTCLDY    65  59  81 CALM      29.95F
$$
MIZ007>008-015-061100-
EASTERN UPPER MICHIGAN

CITY           SKY/WX    TMP DP  RH WIND       PRES   REMARKS
KINROSS        MOCLDY    61  59  94 SE6       29.95F
MACKINAC ISLAN PTCLDY    64  60  85 S9        29.94F
NEWBERRY       MOCLDY    62  58  88 SW10G16   29.93R
S. S. MARIE    MOCLDY    60  57  89 SE5       29.95F
MUNISING         N/A     70  62  76 S9        29.86F
$$
MIZ004>006-011>014-085-061100-
CENTRAL UPPER MICHIGAN

CITY           SKY/WX    TMP DP  RH WIND       PRES   REMARKS
MANISTIQUE     MOCLDY    58  56  93 S8        29.93R FOG
ESCANABA       MOCLDY    66  63  88 SW3       29.91R
MENOMINEE      MOCLDY    68  61  77 SW6       29.91R
SAWYER-GWINN   MOCLDY    65  62  88 S13       29.88S
$$
MIZ001>003-009>011-084-061100-
WESTERN UPPER MICHIGAN

CITY           SKY/WX    TMP DP  RH WIND       PRES   REMARKS
IRON MOUNTAIN  CLOUDY    66  63  90 S6        29.89S FOG
HOUGHTON       LGT RAIN  68  66  93 W13       29.80R
COPPER HARBOR    N/A     63  61  93 N7        29.79R
IRONWOOD       CLOUDY    66  66 100 CALM      29.82R
$$

ABBREVIATIONS USED IN REMARKS
   TC - TEMPERATURE IN CELSIUS
  WCI - WIND CHILL INDEX
   HX - HEAT INDEX
  VSB - VISIBILITY




USA.gov is the U.S. government's official web portal to all federal, state and local government web resources and services.